Location: Bun Machan
(52.1403°N, 7.3744°W)
Time: 16:22:52
(UTC+00:00)

X-37B - Pass Details

Date: 24 June 2021
Orbit: 383 x 392 km, 45.0° (Epoch: 01 July)

Event Time Altitude Azimuth Distance (km) Brightness Sun altitude
Rises 22:41:51 0° 238° (WSW) 2,253 4.4 -10.7°
Reaches altitude 10° 22:44:13 10° 221° (SW) 1,401 3.2 -10.9°
Maximum altitude 22:46:38 20° 171° (S) 946 1.9 -11.0°
Enters shadow 22:47:21 19° 151° (SSE) 994 2.0 -11.1°
